EW8784 Weather Reports


Display with metric or nautical units.
time (UTC)temp
F
wind
direction
speed
MPH
gust
MPH
rain 1hr
in
rain 24hr
in
rain mn
in
humidity
%
barometer
mb
20260505124504 64 359 0.0 0.0 0.00 0.00 0.00 55 1026.5
20260505123007 64 359 0.0 0.0 0.00 0.00 0.00 53 1026.5
20260505121505 64 359 0.0 0.0 0.00 0.00 0.00 53 1026.5
20260505120004 64 359 0.0 0.0 0.00 0.00 0.00 52 1026.4
20260505114505 64 113 0.0 0.0 0.00 0.00 0.00 53 1026.4
20260505113004 65 113 0.0 0.0 0.00 0.00 0.00 51 1026.2
20260505111507 65 113 0.0 0.0 0.00 0.00 0.00 51 1026.1
20260505100003 65 113 0.0 0.0 0.00 0.00 0.00 48 1025.3
20260505094505 65 113 0.0 0.0 0.00 0.00 0.00 47 1025.0
20260505093008 66 113 0.0 0.0 0.00 0.00 0.00 46 1024.8
20260505090004 66 359 0.0 0.0 0.00 0.00 0.00 45 1024.3
20260505084505 67 359 0.0 0.0 0.00 0.00 0.00 44 1024.2
20260505083003 67 359 0.0 0.0 0.00 0.00 0.00 43 1024.1
20260505081507 68 339 0.0 0.0 0.00 0.00 0.00 42 1023.9
20260505080004 68 172 1.0 4.0 0.00 0.00 0.00 38 1024.0
20260505074506 70 177 0.0 0.0 0.00 0.00 0.00 41 1024.0
20260505073004 70 90 1.0 6.0 0.00 0.00 0.00 41 1023.7
20260505071508 70 186 0.0 0.0 0.00 0.00 0.00 42 1023.7
20260505070005 71 194 0.0 4.0 0.00 0.00 0.00 40 1023.6
20260505063008 71 174 1.0 8.0 0.00 0.00 0.00 36 1023.3
20260505061504 72 194 0.0 0.0 0.00 0.00 0.00 36 1023.3
20260505060008 72 186 1.0 4.0 0.00 0.00 0.00 35 1023.1
20260505054504 73 94 5.0 10.0 0.00 0.00 0.00 32 1023.1
20260505053007 73 181 2.0 5.0 0.00 0.00 0.00 34 1023.1
20260505051504 73 143 1.0 7.0 0.00 0.00 0.00 35 1023.1
20260505041505 80 359 0.0 0.0 0.00 0.00 0.00 17 1023.3
20260505040008 78 359 0.0 0.0 0.00 0.00 0.00 13 1023.3
20260505034504 77 359 0.0 0.0 0.00 0.00 0.00 14 1023.2
20260505031504 75 359 0.0 0.0 0.00 0.00 0.00 15 1023.4
20260505030008 74 359 0.0 0.0 0.00 0.00 0.00 17 1023.4
20260505024503 74 359 0.0 0.0 0.00 0.00 0.00 17 1023.4
20260505023007 74 359 0.0 0.0 0.00 0.00 0.00 18 1023.6
20260505020002 74 1 0.0 0.0 0.00 0.00 0.00 15 1023.6
20260505014504 74 1 0.0 0.0 0.00 0.00 0.00 17 1023.5
20260505011504 72 1 0.0 0.0 0.00 0.00 0.00 15 1023.3
20260505010002 71 1 0.0 0.0 0.00 0.00 0.00 16 1023.3
20260505004505 71 1 0.0 0.0 0.00 0.00 0.00 15 1023.3
20260505003002 70 20 0.0 0.0 0.00 0.00 0.00 17 1023.1
20260505001506 70 20 0.0 0.0 0.00 0.00 0.00 18 1022.9
20260505000003 68 20 0.0 0.0 0.00 0.00 0.00 18 1023.0
20260504231504 65 17 0.0 0.0 0.00 0.00 0.00 23 1023.3
20260504230002 66 53 0.0 0.0 0.00 0.00 0.00 25 1023.4
20260504223006 63 53 0.0 0.0 0.00 0.00 0.00 28 1022.9
20260504220007 61 53 0.0 0.0 0.00 0.00 0.00 31 1022.7
20260504214530 60 53 0.0 0.0 0.00 0.00 0.00 32 1022.6
20260504211502 60 1 0.0 0.0 0.00 0.00 0.00 31 1022.1
20260504210006 60 1 0.0 0.0 0.00 0.02 0.00 29 1021.6
20260504203005 60 1 0.0 0.0 0.00 0.02 0.00 28 1020.9
20260504194503 59 1 0.0 0.0 0.00 0.02 0.00 31 1019.7
20260504193004 59 1 0.0 0.0 0.00 0.02 0.00 34 1019.1
20260504191502 59 333 0.0 0.0 0.00 0.02 0.00 35 1018.7
20260504190006 59 307 0.0 0.0 0.00 0.02 0.00 37 1018.3
20260504184504 59 300 0.0 0.0 0.00 0.02 0.00 38 1017.9
20260504183005 59 314 0.0 0.0 0.00 0.02 0.00 39 1017.3
20260504180005 59 349 0.0 0.0 0.00 0.02 0.00 40 1016.6
20260504174502 59 359 0.0 0.0 0.00 0.02 0.00 40 1016.3
20260504173004 59 359 0.0 0.0 0.00 0.02 0.00 40 1015.6
20260504171508 59 323 0.0 0.0 0.00 0.02 0.00 40 1015.1